This is the latest recevied weather packets stored in our database for station/object VK4AB-13. If no packets are shown the sender has not sent any weather packets the latest 10 day(s).
| Time | Temp. | Humidity | Pressure | Rain* | Wind** | Luminosity | Snow |
|---|---|---|---|---|---|---|---|
| 1777864429 | 27.22° C | 59% | 1015.5 hPa | 0 mm | - | 670 W/m² | - |
| 1777864366 | 27.22° C | 59% | 1015.6 hPa | 0 mm | - | 663 W/m² | - |
| 1777864129 | 27.22° C | 59% | 1015.6 hPa | 0 mm | - | 663 W/m² | - |
| 1777863829 | 27.78° C | 59% | 1015.6 hPa | 0 mm | - | 675 W/m² | - |
| 1777863529 | 27.78° C | 58% | 1015.7 hPa | 0 mm | - | 84 W/m² | - |
| 1777863229 | 28.33° C | 57% | 1015.8 hPa | 0 mm | - | 744 W/m² | - |
| 1777862929 | 28.89° C | 56% | 1015.8 hPa | 0 mm | - | 735 W/m² | - |
| 1777862806 | 28.89° C | 57% | 1015.8 hPa | 0 mm | - | 833 W/m² | - |
| 1777862629 | 28.89° C | 57% | 1015.8 hPa | 0 mm | - | 833 W/m² | - |
| 1777862329 | 28.33° C | 58% | 1015.9 hPa | 0 mm | - | 756 W/m² | - |
| 1777862029 | 27.78° C | 58% | 1016 hPa | 0 mm | - | 740 W/m² | - |
| 1777861729 | 27.22° C | 60% | 1016.1 hPa | 0 mm | - | 719 W/m² | - |
| 1777861429 | 26.67° C | 61% | 1016.2 hPa | 0 mm | - | 729 W/m² | - |
| 1777861129 | 26.11° C | 63% | 1016.4 hPa | 0 mm | - | 701 W/m² | - |
| 1777861003 | 26.11° C | 63% | 1016.5 hPa | 0 mm | - | 701 W/m² | - |
| 1777860829 | 26.11° C | 63% | 1016.5 hPa | 0 mm | - | 701 W/m² | - |
| 1777860529 | 25.56° C | 65% | 1016.6 hPa | 0 mm | - | 153 W/m² | - |
| 1777860344 | 26.11° C | 63% | 1016.9 hPa | 0 mm | - | 128 W/m² | - |
| 1777860229 | 26.11° C | 64% | 1016.7 hPa | 0 mm | - | 107 W/m² | - |
| 1777859929 | 26.11° C | 64% | 1016.8 hPa | 0 mm | - | 84 W/m² | - |
| 1777859629 | 26.11° C | 63% | 1016.9 hPa | 0 mm | - | 128 W/m² | - |
| 1777859377 | 27.22° C | 61% | 1017.2 hPa | 0 mm | - | 185 W/m² | - |
| 1777859329 | 26.11° C | 63% | 1017 hPa | 0 mm | - | 265 W/m² | - |
| 1777859029 | 26.67° C | 62% | 1017 hPa | 0 mm | - | 221 W/m² | - |
| 1777858729 | 27.22° C | 61% | 1017.2 hPa | 0 mm | - | 185 W/m² | - |
* Rain latest hour (hover to see other rain measurements)
** Current wind speed in m/s (hover to see current wind gust speed)